Regional Weather Roundup
Issued by NWS Jackson, KY

Home | Current Version | Previous Version | Text Only | Print | Product List | Glossary On
Versions: 1 2 3 4 5 6 7 8 9 10 11 12 13 14 15 16 17 18 19 20 21 22 23 24 25 26 27 28 29 30 31 32 33 34 35 36 37 38 39 40 41 42 43 44 45 46 47 48 49 50
000
ASUS43 KJKL 032110
RWRJKL

EAST KENTUCKY HOURLY WEATHER ROUNDUP
NATIONAL WEATHER SERVICE JACKSON KY
500 PM EDT MON AUG 03 2015

NOTE: "FAIR" INDICATES FEW OR NO CLOUDS BELOW 12,000 FEET WITH
NO SIGNIFICANT WEATHER AND/OR OBSTRUCTIONS TO VISIBILITY.

* THESE REPORTS ARE NOT UNDER NWS QUALITY CONTROL AND MAY NOT
  REPORT WEATHER SUCH AS PRECIPITATION AND FOG.

KYZ079-080-083-085-087-088-110-112-115-119-120-032200
...EASTERN KENTUCKY...

CITY           SKY/WX    TMP DP  RH WIND       PRES   REMARKS
JACKSON        SUNNY     85  68  56 VRB5      29.92F
LONDON         MOSUNNY   89  65  44 SW15      29.93F HX  91
SOMERSET*      SUNNY     88  64  45 SW10G17   29.93S
MONTICELLO*    SUNNY     90  73  57 SW8       29.95F HX  98
WILLIAMSBURG*  MOSUNNY   88  68  51 SW6       29.94F HX  91
MIDDLESBORO*   SUNNY     88  66  48 S5        29.95F HX  90
HAZARD APT*    CLEAR     88  66  48 W13       29.93  HX  90
BLACK MTN*       N/A     75  63  64 SW3         N/A
PIKEVILLE APT* MOSUNNY   86  64  48 S3        29.94S
BIG SANDY*     CLEAR     87  67  50 SW7       29.91F HX  90
MOREHEAD APT*  CLEAR     86  68  54 SW13      29.90S
$$

KYZ035-036-041-042-044-050-067-078-099-032200
...CENTRAL KENTUCKY...

CITY           SKY/WX    TMP DP  RH WIND       PRES   REMARKS
MT STERLING*   SUNNY     86  70  58 W10G16    29.89F HX  90
FLEMING/MASON* MOSUNNY  N/A N/A N/A SW12G17   29.89R
DANVILLE*      SUNNY     90  70  51 W9        29.91S HX  95
RICHMOND*      SUNNY     88  66  48 SW12      29.90S HX  90
LEXINGTON      SUNNY     88  68  51 W15       29.88S HX  91
FRANKFORT      MOSUNNY   88  69  53 SW14      29.86F HX  92
$$

KYZ091>093-OHZ055-061-077-WVZ005-015-034-035-042-032200
...SOUTHERN OHIO/WEST VIRGINIA...

CITY           SKY/WX    TMP DP  RH WIND       PRES   REMARKS
COVINGTON      PTSUNNY   86  68  54 W9        29.86F
COLUMBUS       PTSUNNY   83  67  58 W15       29.83S
DAYTON         CLOUDY    78  70  76 SW9       29.85F
WILMINGTON     MOSUNNY   80  67  64 SW13      29.86R
HUNTINGTON     SUNNY     87  65  47 SW13G18   29.86F
CHARLESTON     MOSUNNY   87  62  43 SW15G21   29.87F
PINEVILLE*     SUNNY     87  64  46 MISG      30.00S
BECKLEY        SUNNY     82  60  47 SW10      29.99F
BLUEFIELD      SUNNY     84  57  39 W10       30.03S
$$

VAZ002-007-008-TNZ017-027-036-066-071-032200
...SOUTHWEST VIRGINIA/EAST TENNESSEE...

CITY           SKY/WX    TMP DP  RH WIND       PRES   REMARKS
WISE*          SUNNY     84  55  37 SW9G16    30.04F
ABINGDON*      SUNNY     87  54  32 W7        30.00S
BRISTOL        MOSUNNY   89  55  31 S7        29.96F
KNOXVILLE      MOSUNNY   91  59  33 NW5       29.94S HX  90
OAK RIDGE      SUNNY     91  61  36 VRB5      29.95F HX  91
CROSSVILLE     SUNNY     85  63  47 W7        30.01S
NASHVILLE      PTSUNNY   93  63  36 W9        29.91F HX  94
$$

...KEY TO REMARKS...
VSB - VISIBILITY IN MILES
WCI - WIND CHILL INDEX
HX  - HEAT INDEX

$$


USA.gov is the U.S. government's official web portal to all federal, state and local government web resources and services.